[[{"header":{"parameterUnit":"m.s-1","parameterCategory":1,"la1":30.2991,"la2":30.254,"lo1":-89.0895,"lo2":-89.0444,"dy":0.0017,"dx":0.0017,"nx":28,"ny":28,"refTime":"2023-10-02T09:00:00:Z","depth":0,"parameterNumber":2,"parameterNumberName":"U-component_of_WINDS"},"data":[0,0,0,0,0,0,0,0,0,0,0,0,0,0,0,0,0,0,0,0,0,0,0,0,0,0,0,0,0,0,0,0,0,0,0,0,0,0,0,0,0,0,0,0,0,0,0,0,0,0,0,0,0,0,0,0,0,0,-4.7584,-4.7586,0,-4.7684,-4.7685,-4.7686,-4.7543,-4.7538,-4.7533,-4.7528,-4.7634,-4.7641,-4.7648,0,0,0,0,0,0,0,0,0,0,0,0,0,-4.7273,-4.728,-4.7584,-4.7586,-4.7587,-4.7684,-4.7685,-4.7687,-4.7544,-4.7538,-4.7532,-4.7526,-4.7631,-4.764,-4.7649,0,0,0,0,0,0,0,0,0,0,0,0,0,-4.7394,-4.7282,-4.7584,-4.7527,-4.7523,-4.7684,-4.7685,-4.7687,-4.7545,-4.7538,-4.753,-4.7523,-4.7628,-4.7639,-4.765,-4.7872,0,0,-4.7685,-4.769,0,0,0,0,0,0,0,0,-4.7388,-4.7406,-4.7534,-4.7531,-4.7527,-4.7593,-4.7614,-4.7749,-4.7547,-4.7537,-4.7528,-4.7519,-4.7627,-4.7638,-4.7673,-4.7877,-4.7882,-4.7686,-4.7693,-4.7698,-4.7701,0,0,0,0,0,0,0,-4.7379,-4.7401,-4.7624,-4.7536,-4.7532,-4.7498,-4.7506,-4.7639,-4.7623,-4.7537,-4.7527,-4.7541,-4.7623,-4.7663,-4.7675,-4.7883,-4.7686,-4.7696,-4.7703,-4.7707,-4.8275,-4.8283,0,0,0,0,0,0,-4.7377,-4.7395,-4.7621,-4.7627,-4.7437,-4.7509,-4.7519,-4.758,-4.7621,-4.762,-4.7547,-4.7534,-4.7647,-4.7661,-4.7678,-4.7941,-4.7698,-4.7708,-4.7715,-4.8267,-4.8277,-4.8286,0,0,0,0,0,0,-4.7371,-4.7399,-4.7617,-4.7508,-4.7533,-4.7523,-4.7592,-4.7586,-4.7625,-4.7629,-4.7626,-4.759,-4.7642,-4.7662,-4.7825,-4.7943,-4.7713,-4.7724,-4.8257,-4.827,-4.8282,-4.847,0,0,0,0,0,0,-4.7363,-4.7398,-4.7481,-4.7511,-4.754,-4.7762,-4.7599,-4.7593,-4.7644,-4.7628,-4.7668,-4.7668,-4.7637,-4.7809,-4.7836,-4.7954,-4.7732,-4.8247,-4.8263,-4.8278,-4.8453,-4.8487,-4.8516,0,0,0,0,0,-4.7352,-4.7531,-4.7486,-4.7514,-4.7644,-4.7769,-4.7785,-4.7746,-4.7654,-4.7739,-4.7741,-4.7666,-4.7925,-4.7827,-4.7856,-4.798,-4.8239,-4.8259,-4.8277,-4.8439,-4.848,-4.8515,0,0,0,0,0,0,-4.7516,-4.7534,-4.7485,-4.7678,-4.7723,-4.7745,-4.785,-4.7791,-4.7864,-4.7845,-4.7794,-4.7804,-4.7979,-4.7995,-4.7885,-4.8197,-4.8067,-4.8093,-4.818,-4.822,-4.8251,-4.8244,-4.7742,0,0,0,0,0,-4.7575,-4.7674,-4.7684,-4.7854,-4.7879,-4.7861,-4.7914,-4.7879,-4.7924,-4.7943,-4.7957,-4.8005,-4.8097,-4.8159,-4.8244,-4.8454,-4.8461,-4.8553,-4.8585,-4.8611,-4.8634,-4.8747,-4.8789,-4.8348,-4.8348,-4.8347,0,0,-4.7697,-4.7719,-4.7785,-4.7887,-4.7918,-4.8023,-4.7878,-4.7995,-4.8073,-4.7961,-4.8116,-4.8129,-4.8178,-4.8367,-4.845,-4.8385,-4.8757,-4.8634,-4.8655,-4.8664,-4.8771,-4.8813,-4.885,-4.836,-4.8358,-4.8356,0,0,-4.7974,-4.8,-4.8144,-4.8178,-4.8226,-4.8213,-4.8248,-4.8279,-4.8282,-4.8436,-4.8355,-4.8447,-4.8606,-4.8645,-4.8686,-4.8977,-4.8912,-4.9006,-4.9172,-4.9284,-4.9318,-4.9349,-4.9454,-4.9492,-4.9029,-4.903,-4.903,0,-4.812,-4.8274,-4.8226,-4.8349,-4.8397,-4.8299,-4.8446,-4.8481,-4.8555,-4.8591,-4.8517,-4.8715,-4.8742,-4.8938,-4.9009,-4.9045,-4.9084,-4.9002,-4.9317,-4.9347,-4.9375,-4.9475,-4.9514,-4.9041,-4.904,-4.9039,-4.9038,0,-4.8452,-4.856,-4.8671,-4.8744,-4.8804,-4.8939,-4.8912,-4.8979,-4.8939,-4.8934,-4.9093,-4.9121,-4.921,-4.9254,-4.9217,-4.9446,-4.9404,-4.9325,-4.9194,-4.9429,-4.9522,-4.956,-4.9057,-4.9053,-4.905,-4.9047,0,0,-4.8836,-4.888,-4.8922,-4.8954,-4.9,-4.9083,-4.9214,-4.9299,-4.9359,-4.9413,-4.9522,-4.9658,-4.9585,-4.9631,-4.9597,-4.9695,-4.9925,-4.9603,-4.9603,-4.9663,-5.0181,-5.0242,-5.0287,-4.9881,-4.9888,-4.9894,-5.0177,0,-4.9113,-4.9337,-4.9297,-4.9516,-4.9616,-4.9524,-4.9637,-4.9679,-4.9678,-4.9763,-4.9761,-4.986,-4.9755,-4.9782,-4.9874,-4.9878,-5.0029,-4.9857,-4.9984,-4.9989,-4.9976,-5.0335,-5.04,-5.0666,-5.0213,-5.0219,-5.0224,0,-4.9466,-4.9533,-4.9761,-4.9791,-4.9832,-4.9935,-5.0011,-5.0093,-5.0138,-5.013,-5.0182,-5.013,-5.0261,-5.0127,-5.0307,-5.0191,-5.024,-5.025,-5.0259,-5.0271,-5.0122,-5.0358,-5.075,-5.0791,-5.028,-5.0276,-5.0272,0,-4.9725,-4.9872,-5.0028,-5.0058,-5.0097,-5.0171,-5.0191,-5.0228,-5.0283,-5.0349,-5.0384,-5.0466,-5.0511,-5.0576,-5.0547,-5.0452,-5.0734,-5.0597,-5.0733,-5.0734,-5.0798,-5.0794,-5.1204,-5.0827,-5.0827,-5.0826,-5.0825,0,-5.004,-5.0183,-5.0144,-5.0241,-5.0399,-5.0352,-5.0511,-5.0519,-5.0554,-5.065,-5.0576,-5.0669,-5.0625,-5.0715,-5.0693,-5.0847,-5.0868,-5.0866,-5.0859,-5.0874,-5.0874,-5.0907,-5.0888,-5.0837,-5.0834,-5.0832,-5.083,0,-5.0357,-5.0336,-5.05,-5.0523,-5.0532,-5.0648,-5.0668,-5.0759,-5.0751,-5.0875,-5.0901,-5.089,-5.0992,-5.097,-5.1082,-5.1068,-5.1261,-5.123,-5.1246,-5.1239,-5.1377,-5.1365,-5.1823,-5.1882,-5.1466,-5.147,-5.1473,0,-5.0559,-5.0667,-5.0702,-5.0761,-5.0786,-5.0883,-5.0937,-5.0895,-5.0956,-5.1015,-5.1099,-5.1194,-5.1268,-5.1436,-5.1439,-5.1525,-5.1496,-5.1651,-5.1509,-5.1521,-5.1501,-5.1495,-5.1506,-5.168,-5.1685,-5.1689,-5.1692,0,-5.0922,-5.0906,-5.0987,-5.1066,-5.1133,-5.1194,-5.1246,-5.1299,-5.1262,-5.1334,-5.1436,-5.1494,-5.1608,-5.1704,-5.1784,-5.1805,-5.1744,-5.1736,-5.1772,-5.1789,-5.1795,-5.1795,-5.1325,-5.1726,-5.1723,-5.172,-5.1718,-5.1717,-5.1189,-5.1281,-5.1319,-5.1413,-5.1448,-5.1499,-5.1585,-5.1588,-5.1673,-5.1762,-5.1732,-5.1851,-5.1893,-5.1993,-5.2024,-5.2116,-5.2058,-5.2111,-5.2124,-5.2138,-5.2156,-5.1779,-5.213,-5.2129,-5.2128,-5.2128,-5.2127,0,-5.1548,-5.1568,-5.1655,-5.1731,-5.1805,-5.1738,-5.1793,-5.186,-5.1965,-5.2009,-5.2083,-5.2202,-5.2295,-5.2305,-5.2393,-5.2465,-5.2439,-5.249,-5.2485,-5.2491,-5.2202,-5.2162,-5.2509,-5.2509,-5.2509,-5.2509,-5.2509,-5.2509,-5.1744,-5.1897,-5.1886,-5.2056,-5.2075,-5.2189,-5.2227,-5.2274,-5.2309,-5.2445,-5.2521,-5.2527,-5.2558,-5.2647,-5.273,-5.273,-5.2767,-5.2829,-5.282,-5.2549,-5.2511,-5.2475,-5.2438,-5.2837,-5.2838,-5.3101,-5.3104,-5.3105]},{"header":{"parameterUnit":"m.s-1","parameterCategory":1,"la1":30.2991,"la2":30.254,"lo1":-89.0895,"lo2":-89.0444,"dy":0.0017,"dx":0.0017,"nx":28,"ny":28,"refTime":"2023-10-02T09:00:00:Z","depth":0,"parameterNumber":3,"parameterNumberName":"V-component_of_WINDS"},"data":[0,0,0,0,0,0,0,0,0,0,0,0,0,0,0,0,0,0,0,0,0,0,0,0,0,0,0,0,0,0,0,0,0,0,0,0,0,0,0,0,0,0,0,0,0,0,0,0,0,0,0,0,0,0,0,0,0,0,-3.4533,-3.4533,0,-3.4518,-3.4518,-3.4517,-3.4457,-3.4455,-3.4454,-3.4452,-3.4437,-3.4438,-3.4438,0,0,0,0,0,0,0,0,0,0,0,0,0,-3.4508,-3.4509,-3.4533,-3.4533,-3.4533,-3.4518,-3.4518,-3.4517,-3.4457,-3.4455,-3.4453,-3.4452,-3.4436,-3.4437,-3.4438,0,0,0,0,0,0,0,0,0,0,0,0,0,-3.4509,-3.4509,-3.4533,-3.4501,-3.4498,-3.4518,-3.4518,-3.4517,-3.4457,-3.4455,-3.4453,-3.4451,-3.4436,-3.4437,-3.4439,-3.4489,0,0,-3.4443,-3.4443,0,0,0,0,0,0,0,0,-3.4509,-3.451,-3.4506,-3.4503,-3.45,-3.4487,-3.4503,-3.4508,-3.4458,-3.4473,-3.4452,-3.445,-3.4455,-3.4455,-3.4456,-3.4488,-3.4488,-3.4443,-3.4444,-3.4444,-3.4445,0,0,0,0,0,0,0,-3.4509,-3.451,-3.4527,-3.4506,-3.4502,-3.4486,-3.4484,-3.4504,-3.4476,-3.4471,-3.4467,-3.4466,-3.4453,-3.4455,-3.4456,-3.4487,-3.4443,-3.4444,-3.4445,-3.4445,-3.4557,-3.4559,0,0,0,0,0,0,-3.4513,-3.451,-3.4527,-3.4527,-3.4499,-3.4489,-3.4486,-3.4493,-3.4475,-3.4471,-3.4467,-3.4463,-3.4454,-3.4454,-3.4455,-3.4511,-3.4444,-3.4445,-3.4446,-3.4555,-3.4558,-3.456,0,0,0,0,0,0,-3.4513,-3.4516,-3.4528,-3.4517,-3.4518,-3.4491,-3.45,-3.4494,-3.4496,-3.4473,-3.4467,-3.4475,-3.4452,-3.4453,-3.448,-3.451,-3.4446,-3.4447,-3.4552,-3.4556,-3.4559,-3.4625,0,0,0,0,0,0,-3.4513,-3.4516,-3.4535,-3.4518,-3.4518,-3.4555,-3.4502,-3.4495,-3.4499,-3.4492,-3.4478,-3.4474,-3.4451,-3.4479,-3.4482,-3.451,-3.4448,-3.455,-3.4554,-3.4558,-3.462,-3.463,-3.4638,0,0,0,0,0,-3.4512,-3.4555,-3.4536,-3.4539,-3.4542,-3.4556,-3.4557,-3.4529,-3.4501,-3.452,-3.4505,-3.4474,-3.4506,-3.4482,-3.4485,-3.4514,-3.4548,-3.4553,-3.4557,-3.4616,-3.4628,-3.4638,0,0,0,0,0,0,-3.4576,-3.4552,-3.4531,-3.457,-3.4566,-3.4546,-3.4569,-3.4543,-3.4547,-3.4541,-3.4506,-3.4504,-3.4536,-3.4528,-3.4502,-3.4561,-3.4522,-3.4527,-3.4565,-3.4576,-3.4585,-3.4586,-3.4449,0,0,0,0,0,-3.4595,-3.4609,-3.4587,-3.4623,-3.4622,-3.4596,-3.4601,-3.458,-3.4574,-3.4572,-3.4559,-3.4554,-3.4563,-3.4569,-3.4576,-3.4618,-3.4614,-3.464,-3.4649,-3.4657,-3.4662,-3.4682,-3.4693,-3.4576,-3.4576,-3.4576,0,0,-3.4634,-3.4622,-3.4633,-3.4636,-3.463,-3.4644,-3.4595,-3.4613,-3.4623,-3.4575,-3.4599,-3.459,-3.4582,-3.4617,-3.4631,-3.4611,-3.4693,-3.4663,-3.467,-3.467,-3.4688,-3.4699,-3.4709,-3.4579,-3.4579,-3.4578,0,0,-3.4711,-3.4705,-3.4733,-3.4728,-3.472,-3.4702,-3.4709,-3.4693,-3.4684,-3.4708,-3.4672,-3.4683,-3.47,-3.4695,-3.4695,-3.4769,-3.4741,-3.4772,-3.482,-3.484,-3.4849,-3.4857,-3.4882,-3.4892,-3.4777,-3.4778,-3.4778,0,-3.4761,-3.4781,-3.4751,-3.4771,-3.4772,-3.4729,-3.4757,-3.4753,-3.4748,-3.4749,-3.4727,-3.4745,-3.4737,-3.4769,-3.4787,-3.4788,-3.4794,-3.4773,-3.4851,-3.4858,-3.4865,-3.4889,-3.4898,-3.4781,-3.4781,-3.478,-3.478,0,-3.4841,-3.4856,-3.488,-3.4875,-3.4879,-3.4903,-3.4875,-3.4883,-3.4862,-3.4846,-3.487,-3.4859,-3.4862,-3.4868,-3.4848,-3.4897,-3.4884,-3.4857,-3.4816,-3.4881,-3.4902,-3.4911,-3.4787,-3.4785,-3.4784,-3.4783,0,0,-3.496,-3.4936,-3.4946,-3.4942,-3.4929,-3.4939,-3.496,-3.4963,-3.4969,-3.4967,-3.4983,-3.4997,-3.497,-3.497,-3.4949,-3.4966,-3.5024,-3.4936,-3.4936,-3.4952,-3.5075,-3.5095,-3.5106,-3.5005,-3.5007,-3.5008,-3.5075,0,-3.5032,-3.5067,-3.504,-3.5079,-3.5091,-3.505,-3.5068,-3.5062,-3.5047,-3.5055,-3.5039,-3.5049,-3.5015,-3.5014,-3.503,-3.5014,-3.5048,-3.5008,-3.5019,-3.502,-3.5021,-3.5118,-3.5139,-3.5203,-3.5084,-3.5085,-3.5086,0,-3.5122,-3.5122,-3.5163,-3.5145,-3.5149,-3.5166,-3.5165,-3.5174,-3.5165,-3.5153,-3.5152,-3.5126,-3.5144,-3.5105,-3.5129,-3.5103,-3.5106,-3.5098,-3.51,-3.5099,-3.5056,-3.5118,-3.5223,-3.5232,-3.5099,-3.5098,-3.5097,0,-3.5202,-3.5213,-3.5238,-3.5236,-3.5217,-3.5229,-3.5222,-3.5211,-3.5214,-3.5213,-3.5214,-3.5216,-3.5216,-3.5218,-3.5192,-3.5166,-3.5219,-3.5178,-3.5208,-3.5209,-3.5221,-3.522,-3.5327,-3.5225,-3.5225,-3.5224,-3.5224,0,-3.5286,-3.5312,-3.5274,-3.5289,-3.5316,-3.5284,-3.5312,-3.53,-3.5291,-3.5302,-3.5267,-3.5279,-3.5244,-3.5252,-3.5232,-3.5254,-3.5255,-3.5245,-3.5239,-3.5248,-3.5249,-3.5248,-3.5243,-3.5227,-3.5226,-3.5226,-3.5225,0,-3.538,-3.5356,-3.538,-3.5359,-3.5354,-3.5375,-3.5357,-3.537,-3.5353,-3.5368,-3.537,-3.5343,-3.535,-3.5324,-3.5327,-3.5314,-3.5346,-3.5334,-3.5349,-3.5345,-3.5376,-3.5373,-3.5485,-3.5497,-3.5389,-3.539,-3.5391,0,-3.5434,-3.5453,-3.5434,-3.5439,-3.5433,-3.5442,-3.5444,-3.5413,-3.5416,-3.5407,-3.5421,-3.5425,-3.5426,-3.544,-3.542,-3.5422,-3.5408,-3.5447,-3.5408,-3.5416,-3.5407,-3.5406,-3.5407,-3.5455,-3.5457,-3.5458,-3.5459,0,-3.5533,-3.5519,-3.5524,-3.5524,-3.5527,-3.5525,-3.5521,-3.5528,-3.5494,-3.55,-3.5506,-3.5507,-3.551,-3.5514,-3.5511,-3.5503,-3.5475,-3.5471,-3.5478,-3.5486,-3.5494,-3.5489,-3.537,-3.5468,-3.5467,-3.5467,-3.5466,-3.5466,-3.5608,-3.5622,-3.561,-3.5615,-3.5609,-3.5606,-3.5616,-3.56,-3.5605,-3.5604,-3.5585,-3.5595,-3.5584,-3.5578,-3.5572,-3.5579,-3.5561,-3.5571,-3.5573,-3.5576,-3.5581,-3.5494,-3.5579,-3.5578,-3.5578,-3.5578,-3.5577,0,-3.5703,-3.5693,-3.5699,-3.5693,-3.5697,-3.5671,-3.5664,-3.5669,-3.5678,-3.5671,-3.5673,-3.5679,-3.5683,-3.5663,-3.5664,-3.5673,-3.566,-3.5674,-3.5672,-3.5671,-3.5598,-3.5591,-3.5684,-3.5684,-3.5684,-3.5684,-3.5684,-3.5684,-3.5753,-3.5775,-3.576,-3.5778,-3.5767,-3.5776,-3.5775,-3.5771,-3.5764,-3.5773,-3.5776,-3.5763,-3.575,-3.5749,-3.5751,-3.5745,-3.5746,-3.5764,-3.5754,-3.5686,-3.5676,-3.5666,-3.5659,-3.5765,-3.5765,-3.5826,-3.5826,-3.5827]}]]